[[{"header":{"parameterUnit":"m.s-1","parameterCategory":1,"la1":30.2991,"la2":30.254,"lo1":-89.0895,"lo2":-89.0444,"dy":0.0017,"dx":0.0017,"nx":28,"ny":28,"refTime":"2024-04-04T21:00:00:Z","depth":0,"parameterNumber":2,"parameterNumberName":"U-component_of_WINDS"},"data":[0,0,0,0,0,0,0,0,0,0,0,0,0,0,0,0,0,0,0,0,0,0,0,0,0,0,0,0,0,0,0,0,0,0,0,0,0,0,0,0,0,0,0,0,0,0,0,0,0,0,0,0,0,0,0,0,0,0,-5.3983,-5.3983,0,-5.3982,-5.3982,-5.3982,-5.3792,-5.3788,-5.3783,-5.3778,-5.3779,-5.3783,-5.3788,0,0,0,0,0,0,0,0,0,0,0,0,0,-5.3823,-5.3827,-5.3983,-5.3983,-5.3983,-5.3982,-5.3982,-5.3982,-5.3793,-5.3787,-5.3781,-5.3776,-5.3777,-5.3783,-5.3788,0,0,0,0,0,0,0,0,0,0,0,0,0,-5.3864,-5.3828,-5.3983,-5.3889,-5.388,-5.3982,-5.3982,-5.3982,-5.3795,-5.3787,-5.378,-5.3773,-5.3775,-5.3782,-5.3789,-5.3981,0,0,-5.381,-5.3813,0,0,0,0,0,0,0,0,-5.3862,-5.387,-5.3903,-5.3895,-5.3886,-5.3879,-5.3925,-5.3982,-5.3797,-5.3827,-5.3778,-5.3769,-5.3818,-5.3821,-5.3837,-5.3981,-5.3981,-5.3811,-5.3815,-5.3818,-5.382,0,0,0,0,0,0,0,-5.3859,-5.3869,-5.3982,-5.3903,-5.3893,-5.3847,-5.3844,-5.3935,-5.3865,-5.3824,-5.381,-5.3813,-5.3812,-5.3831,-5.3836,-5.3981,-5.3811,-5.3817,-5.3821,-5.3824,-5.428,-5.4287,0,0,0,0,0,0,-5.3869,-5.3868,-5.3982,-5.3982,-5.3855,-5.3856,-5.3853,-5.3889,-5.3863,-5.3852,-5.3819,-5.3804,-5.3823,-5.3828,-5.3835,-5.4056,-5.3818,-5.3825,-5.3829,-5.4272,-5.4282,-5.429,0,0,0,0,0,0,-5.3867,-5.3881,-5.3982,-5.3921,-5.3931,-5.3866,-5.3909,-5.3893,-5.3911,-5.3859,-5.3846,-5.3851,-5.3817,-5.3826,-5.3946,-5.4054,-5.3828,-5.3834,-5.4263,-5.4275,-5.4286,-5.4502,0,0,0,0,0,0,-5.3863,-5.3881,-5.3954,-5.3925,-5.3935,-5.4093,-5.3915,-5.3898,-5.3924,-5.3904,-5.3886,-5.3876,-5.3812,-5.3936,-5.3953,-5.4059,-5.3839,-5.4253,-5.4268,-5.4282,-5.4485,-5.452,-5.455,0,0,0,0,0,-5.3858,-5.4015,-5.3958,-5.3973,-5.4024,-5.41,-5.4105,-5.4029,-5.3934,-5.4005,-5.3971,-5.3876,-5.404,-5.395,-5.3967,-5.4078,-5.4245,-5.4264,-5.4281,-5.447,-5.4513,-5.4549,0,0,0,0,0,0,-5.406,-5.401,-5.3946,-5.4099,-5.4105,-5.4067,-5.4156,-5.4077,-5.411,-5.409,-5.3994,-5.3992,-5.4127,-5.4114,-5.4015,-5.4261,-5.4126,-5.4148,-5.4264,-5.4304,-5.4336,-5.4335,-5.3845,0,0,0,0,0,-5.4122,-5.4188,-5.4141,-5.428,-5.4286,-5.4221,-5.4251,-5.4192,-5.4194,-5.4196,-5.4171,-5.4178,-5.423,-5.4266,-5.4312,-5.4483,-5.4475,-5.4567,-5.46,-5.4627,-5.4646,-5.4734,-5.4774,-5.4349,-5.4349,-5.4348,0,0,-5.4251,-5.4232,-5.428,-5.432,-5.4317,-5.4387,-5.4225,-5.4306,-5.4356,-5.4208,-5.4319,-5.4302,-5.4302,-5.4448,-5.4511,-5.4442,-5.4762,-5.4649,-5.4671,-5.4676,-5.4756,-5.4797,-5.4833,-5.4361,-5.4359,-5.4357,0,0,-5.4522,-5.4515,-5.4629,-5.463,-5.4628,-5.4584,-5.4612,-5.4586,-5.4568,-5.4678,-5.4568,-5.4628,-5.4721,-5.4725,-5.474,-5.5013,-5.4925,-5.503,-5.5199,-5.5286,-5.5319,-5.5348,-5.5444,-5.5479,-5.505,-5.5051,-5.5051,0,-5.4683,-5.4783,-5.4698,-5.4786,-5.4807,-5.4675,-5.479,-5.4795,-5.4809,-5.4827,-5.4749,-5.4862,-5.4854,-5.4998,-5.5064,-5.5081,-5.5109,-5.5031,-5.5321,-5.535,-5.5376,-5.5465,-5.5502,-5.5064,-5.5062,-5.5061,-5.506,0,-5.498,-5.5052,-5.5145,-5.516,-5.5191,-5.5293,-5.5223,-5.5265,-5.5203,-5.5167,-5.528,-5.5265,-5.5305,-5.5335,-5.5276,-5.5471,-5.5428,-5.5338,-5.5199,-5.543,-5.5513,-5.5547,-5.5082,-5.5077,-5.5073,-5.507,0,0,-5.5377,-5.5344,-5.5379,-5.5384,-5.5372,-5.5425,-5.5521,-5.5559,-5.5596,-5.5611,-5.5687,-5.5769,-5.5685,-5.5702,-5.5642,-5.5719,-5.5933,-5.5618,-5.5617,-5.5676,-5.6145,-5.6212,-5.6253,-5.5876,-5.5883,-5.5888,-5.6145,0,-5.5638,-5.5797,-5.5723,-5.5891,-5.5955,-5.5832,-5.5914,-5.5917,-5.5886,-5.5936,-5.5902,-5.596,-5.5846,-5.5855,-5.5926,-5.5892,-5.6026,-5.5873,-5.5946,-5.595,-5.5947,-5.6296,-5.6367,-5.661,-5.6177,-5.6182,-5.6186,0,-5.5962,-5.5989,-5.6163,-5.6138,-5.6162,-5.6238,-5.6266,-5.6316,-5.6316,-5.6288,-5.6307,-5.6229,-5.6321,-5.6185,-5.631,-5.6207,-5.6233,-5.6222,-5.6229,-5.6231,-5.608,-5.6306,-5.6686,-5.6722,-5.6237,-5.6232,-5.6229,0,-5.6232,-5.6311,-5.6425,-5.6433,-5.6408,-5.6464,-5.6456,-5.6448,-5.6475,-5.65,-5.6517,-5.6553,-5.6573,-5.6603,-5.6537,-5.6445,-5.667,-5.653,-5.6649,-5.6651,-5.67,-5.6698,-5.7088,-5.6721,-5.6721,-5.672,-5.6719,0,-5.6529,-5.664,-5.6545,-5.6615,-5.6735,-5.665,-5.6772,-5.6751,-5.6745,-5.6808,-5.6705,-5.6767,-5.6677,-5.6731,-5.668,-5.679,-5.68,-5.678,-5.6765,-5.6788,-5.679,-5.6802,-5.6782,-5.673,-5.6728,-5.6726,-5.6724,0,-5.6849,-5.679,-5.6906,-5.6872,-5.6866,-5.6957,-5.6928,-5.6991,-5.6953,-5.7035,-5.7049,-5.699,-5.7047,-5.6985,-5.7039,-5.7004,-5.7152,-5.7113,-5.7152,-5.714,-5.7262,-5.725,-5.7671,-5.7721,-5.7326,-5.7329,-5.7333,0,-5.7041,-5.7123,-5.7098,-5.7133,-5.7131,-5.7189,-5.7215,-5.7135,-5.7167,-5.7173,-5.7235,-5.7284,-5.7318,-5.7416,-5.7378,-5.7418,-5.7377,-5.7522,-5.7383,-5.7403,-5.7377,-5.7372,-5.7379,-5.755,-5.7555,-5.7559,-5.7562,0,-5.7388,-5.7355,-5.7397,-5.7429,-5.7464,-5.7486,-5.75,-5.7535,-5.7451,-5.7493,-5.7549,-5.7576,-5.763,-5.7679,-5.7708,-5.7699,-5.7617,-5.7606,-5.7635,-5.7659,-5.7677,-5.7666,-5.7227,-5.7596,-5.7593,-5.759,-5.7589,-5.7587,-5.7648,-5.7714,-5.7707,-5.7757,-5.7759,-5.7775,-5.7832,-5.7801,-5.7846,-5.7883,-5.7833,-5.7903,-5.79,-5.7931,-5.7932,-5.7986,-5.7924,-5.7968,-5.7978,-5.7989,-5.8006,-5.7671,-5.7991,-5.799,-5.7989,-5.7988,-5.7988,0,-5.7987,-5.7976,-5.8023,-5.8045,-5.8085,-5.8004,-5.8015,-5.8054,-5.8116,-5.812,-5.8156,-5.8221,-5.8268,-5.8234,-5.8274,-5.8323,-5.8286,-5.8336,-5.833,-5.833,-5.806,-5.803,-5.8365,-5.8365,-5.8365,-5.8365,-5.8365,-5.8365,-5.8168,-5.8275,-5.8242,-5.8349,-5.8337,-5.8404,-5.8417,-5.8431,-5.8433,-5.851,-5.8548,-5.8526,-5.8514,-5.8552,-5.8592,-5.858,-5.8599,-5.8662,-5.8638,-5.8386,-5.8349,-5.8313,-5.8284,-5.8667,-5.8668,-5.8901,-5.8904,-5.8905]},{"header":{"parameterUnit":"m.s-1","parameterCategory":1,"la1":30.2991,"la2":30.254,"lo1":-89.0895,"lo2":-89.0444,"dy":0.0017,"dx":0.0017,"nx":28,"ny":28,"refTime":"2024-04-04T21:00:00:Z","depth":0,"parameterNumber":3,"parameterNumberName":"V-component_of_WINDS"},"data":[0,0,0,0,0,0,0,0,0,0,0,0,0,0,0,0,0,0,0,0,0,0,0,0,0,0,0,0,0,0,0,0,0,0,0,0,0,0,0,0,0,0,0,0,0,0,0,0,0,0,0,0,0,0,0,0,0,0,-1.2258,-1.2259,0,-1.2299,-1.23,-1.23,-1.2331,-1.2331,-1.2331,-1.2331,-1.2372,-1.2372,-1.2373,0,0,0,0,0,0,0,0,0,0,0,0,0,-1.2203,-1.2204,-1.2258,-1.2259,-1.2259,-1.2299,-1.23,-1.23,-1.2331,-1.2331,-1.2331,-1.2332,-1.2371,-1.2372,-1.2373,0,0,0,0,0,0,0,0,0,0,0,0,0,-1.2234,-1.2204,-1.2258,-1.2279,-1.2282,-1.2299,-1.23,-1.2301,-1.2331,-1.2331,-1.2331,-1.2332,-1.2371,-1.2372,-1.2373,-1.2373,0,0,-1.2377,-1.2378,0,0,0,0,0,0,0,0,-1.2232,-1.2236,-1.2276,-1.2278,-1.228,-1.231,-1.2295,-1.2325,-1.233,-1.2312,-1.2331,-1.2332,-1.2351,-1.2354,-1.236,-1.2375,-1.2377,-1.2377,-1.2378,-1.2379,-1.2379,0,0,0,0,0,0,0,-1.223,-1.2234,-1.2274,-1.2276,-1.2279,-1.2286,-1.229,-1.2301,-1.2328,-1.2314,-1.2316,-1.232,-1.2352,-1.2359,-1.2362,-1.2377,-1.2377,-1.2378,-1.2379,-1.238,-1.2391,-1.2391,0,0,0,0,0,0,-1.2225,-1.2232,-1.2273,-1.2276,-1.2257,-1.2286,-1.2292,-1.23,-1.2328,-1.2333,-1.232,-1.2322,-1.2357,-1.236,-1.2363,-1.2363,-1.2379,-1.238,-1.238,-1.2392,-1.2391,-1.2391,0,0,0,0,0,0,-1.2223,-1.2228,-1.2272,-1.2255,-1.2261,-1.2287,-1.2296,-1.2301,-1.2308,-1.2333,-1.2338,-1.2322,-1.2357,-1.2361,-1.237,-1.2365,-1.238,-1.2381,-1.2392,-1.2391,-1.2391,-1.2364,0,0,0,0,0,0,-1.2222,-1.2227,-1.2228,-1.2254,-1.2261,-1.2278,-1.2296,-1.2301,-1.231,-1.2313,-1.2337,-1.2341,-1.2358,-1.2368,-1.2371,-1.2367,-1.2382,-1.2393,-1.2392,-1.2391,-1.2366,-1.2363,-1.236,0,0,0,0,0,-1.222,-1.2219,-1.2228,-1.2233,-1.2263,-1.2278,-1.2282,-1.2302,-1.231,-1.231,-1.2326,-1.234,-1.2365,-1.2369,-1.2373,-1.2369,-1.2393,-1.2392,-1.2391,-1.2367,-1.2363,-1.236,0,0,0,0,0,0,-1.2192,-1.2223,-1.2234,-1.2242,-1.2257,-1.2283,-1.2285,-1.2298,-1.2311,-1.2313,-1.2336,-1.2341,-1.2347,-1.2359,-1.2362,-1.2369,-1.2381,-1.238,-1.2361,-1.2358,-1.2355,-1.2352,-1.2383,0,0,0,0,0,-1.2187,-1.2197,-1.2224,-1.2228,-1.2235,-1.2258,-1.2266,-1.228,-1.2296,-1.2303,-1.232,-1.2335,-1.2345,-1.2352,-1.2364,-1.2367,-1.2372,-1.2366,-1.2364,-1.2361,-1.2361,-1.2362,-1.2359,-1.2387,-1.2387,-1.2387,0,0,-1.2176,-1.2194,-1.22,-1.2223,-1.2237,-1.2245,-1.2264,-1.2273,-1.228,-1.2304,-1.2313,-1.2326,-1.2344,-1.2349,-1.2352,-1.2359,-1.2354,-1.236,-1.2358,-1.2359,-1.236,-1.2358,-1.2355,-1.2387,-1.2387,-1.2387,0,0,-1.2161,-1.2177,-1.2182,-1.2195,-1.2215,-1.223,-1.2231,-1.2255,-1.2264,-1.2274,-1.2292,-1.2299,-1.2318,-1.233,-1.2338,-1.2326,-1.2339,-1.2329,-1.2315,-1.2316,-1.2313,-1.2312,-1.2306,-1.2304,-1.2329,-1.2328,-1.2328,0,-1.2146,-1.2161,-1.2182,-1.219,-1.2199,-1.2222,-1.2226,-1.2237,-1.226,-1.2265,-1.2272,-1.2295,-1.2309,-1.2317,-1.2314,-1.232,-1.2321,-1.2327,-1.2312,-1.231,-1.2309,-1.2304,-1.2302,-1.2327,-1.2327,-1.2327,-1.2327,0,-1.214,-1.215,-1.2151,-1.2173,-1.2182,-1.2188,-1.2209,-1.2215,-1.2228,-1.2242,-1.225,-1.2267,-1.2282,-1.2285,-1.2297,-1.2294,-1.2297,-1.2308,-1.232,-1.2305,-1.23,-1.2298,-1.2325,-1.2326,-1.2326,-1.2326,0,0,-1.211,-1.2142,-1.2142,-1.2151,-1.2174,-1.2182,-1.2188,-1.2203,-1.2207,-1.2221,-1.2226,-1.2241,-1.2251,-1.226,-1.2274,-1.2274,-1.2262,-1.2285,-1.2286,-1.2279,-1.2257,-1.2249,-1.2246,-1.2271,-1.227,-1.227,-1.2256,0,-1.2098,-1.2111,-1.213,-1.2136,-1.2145,-1.2165,-1.217,-1.2184,-1.2197,-1.2205,-1.2219,-1.2229,-1.2241,-1.2247,-1.2249,-1.2263,-1.2258,-1.2264,-1.2274,-1.2274,-1.2269,-1.2244,-1.2235,-1.2221,-1.2254,-1.2254,-1.2254,0,-1.2087,-1.21,-1.2107,-1.2128,-1.2132,-1.2136,-1.215,-1.2158,-1.2174,-1.2183,-1.2193,-1.2207,-1.2213,-1.2225,-1.2233,-1.2237,-1.2242,-1.2249,-1.2249,-1.2251,-1.2263,-1.2244,-1.2217,-1.2214,-1.2251,-1.2252,-1.2252,0,-1.2063,-1.2082,-1.2089,-1.2096,-1.2121,-1.2123,-1.2133,-1.2149,-1.2156,-1.2168,-1.2172,-1.2185,-1.2191,-1.22,-1.2217,-1.2224,-1.2223,-1.2236,-1.2229,-1.2229,-1.2228,-1.2228,-1.22,-1.2232,-1.2232,-1.2232,-1.2232,0,-1.2048,-1.2051,-1.2078,-1.2082,-1.2085,-1.2106,-1.2109,-1.2121,-1.2134,-1.214,-1.2158,-1.2163,-1.2186,-1.2192,-1.2206,-1.2209,-1.2213,-1.2219,-1.2223,-1.2217,-1.2216,-1.2221,-1.2222,-1.2232,-1.2232,-1.2232,-1.2232,0,-1.2022,-1.204,-1.2048,-1.207,-1.2076,-1.2078,-1.2096,-1.21,-1.2113,-1.212,-1.2123,-1.2143,-1.2152,-1.217,-1.2184,-1.2193,-1.2193,-1.22,-1.2188,-1.219,-1.2182,-1.2182,-1.2156,-1.2153,-1.2187,-1.2187,-1.2187,0,-1.2011,-1.2014,-1.2036,-1.2041,-1.205,-1.2059,-1.2066,-1.2085,-1.2092,-1.2109,-1.211,-1.212,-1.213,-1.2143,-1.2158,-1.2169,-1.2175,-1.2165,-1.2177,-1.2171,-1.2174,-1.2173,-1.2173,-1.2162,-1.2162,-1.2162,-1.2161,0,-1.1989,-1.1997,-1.2007,-1.2019,-1.2027,-1.2038,-1.2049,-1.2052,-1.2074,-1.208,-1.2089,-1.2097,-1.211,-1.212,-1.2132,-1.2142,-1.2154,-1.2157,-1.2156,-1.2151,-1.2143,-1.2146,-1.218,-1.2158,-1.2158,-1.2159,-1.2159,-1.2159,-1.197,-1.1972,-1.1988,-1.1998,-1.2008,-1.2018,-1.2022,-1.2035,-1.2044,-1.2057,-1.2067,-1.2075,-1.2089,-1.2107,-1.2115,-1.2121,-1.2128,-1.2126,-1.2126,-1.2125,-1.2122,-1.2143,-1.2124,-1.2124,-1.2124,-1.2124,-1.2124,0,-1.1948,-1.1958,-1.1967,-1.1982,-1.1989,-1.2001,-1.2014,-1.2018,-1.2025,-1.2037,-1.2046,-1.2055,-1.2064,-1.208,-1.209,-1.2091,-1.2097,-1.2093,-1.2093,-1.2095,-1.2116,-1.2116,-1.2088,-1.2088,-1.2088,-1.2088,-1.2088,-1.2088,-1.1937,-1.1942,-1.1952,-1.1961,-1.1972,-1.198,-1.1986,-1.1995,-1.2004,-1.2014,-1.2022,-1.2032,-1.2045,-1.2056,-1.2064,-1.2068,-1.207,-1.2064,-1.207,-1.209,-1.2093,-1.2097,-1.2096,-1.2065,-1.2065,-1.2048,-1.2048,-1.2048]}]]